Location: Essen
(51.4609°N, 7.0127°E)
Time: 18:08:50
(UTC+01:00)

ISS - Visible Passes

Search period start: 21 November 2017 00:00
Search period end: 01 December 2017 00:00
Orbit: 402 x 407 km, 51.6° (Epoch: 22 November)

Date Brightness Start Highest point End Pass type
(mag) Time Alt. Az. Time Alt. Az. Time Alt. Az.
28 Nov -1.4 18:16:55 10° SSE 18:17:52 12° SE 18:17:52 12° SE visible
29 Nov -1.8 18:58:54 10° SW 19:00:26 22° SSW 19:00:26 22° SSW visible
30 Nov -2.2 18:07:04 10° SSW 18:09:39 21° SE 18:10:16 20° SE visible
30 Nov -0.6 19:42:29 10° WSW 19:42:55 13° WSW 19:42:55 13° WSW visible
